Location: Coupvray
(48.8929°N, 2.7967°E)
Time: 08:52:30
(UTC+00:00)

Cosmos 2278 - Pass Details

Date: 14 July 2020
Orbit: 838 x 854 km, 71.1° (Epoch: 14 August)

Event Time Altitude Azimuth Distance (km) Brightness Sun altitude
Rises 01:58:57 0° 332° (NNW) 3,434 7.3 -14.2°
Reaches altitude 10° 02:01:25 10° 333° (NNW) 2,495 6.6 -14.0°
Maximum altitude 02:07:10 81° 61° (ENE) 871 3.8 -13.6°
Drops below altitude 10° 02:12:53 10° 149° (SSE) 2,479 5.9 -13.1°
Sets 02:15:19 0° 151° (SSE) 3,410 6.6 -12.8°
